Location: Casilda
(33.0440°S, 61.1680°W)
Time: 21:37:04

ISS - Visible Passes

Search period start: 21 March 2018 00:00
Search period end: 31 March 2018 00:00
Orbit: 403 x 406 km, 51.6° (Epoch: 22 March)

Date Brightness Start Highest point End Pass type
(mag) Time Alt. Az. Time Alt. Az. Time Alt. Az.
27 Mar -0.9 06:10:06 10° NNE 06:12:11 16° NE 06:14:17 10° E visible
29 Mar -2.8 06:01:37 17° NNW 06:03:52 45° NE 06:07:03 10° ESE visible
30 Mar -1.3 05:12:12 20° ENE 05:12:12 20° ENE 05:14:14 10° ESE visible
30 Mar -2.6 06:45:06 10° W 06:48:01 28° SW 06:50:58 10° SSE visible
